Flag for United Kingdom Weather past 2 weeks in Exeter, England, United Kingdom

Now
46 °F

Passing clouds.


Feels Like: 42 °F
Forecast: 46 / 57 °F
Wind: 8 mph from West

Location: Exeter Airport

Current Time: Oct 21, 2014 at 10:37:17 PM

Latest Report: Oct 21, 2014 at 9:50 PM


Visibility: N/A

Pressure: 30.24 "Hg

Humidity: 82%

Dew point: 41 °F

Location of ExeterLocation

Historic Weather in Exeter — Graph

°F

Exeter temperature yesterday

Maximum temperature yesterday: 61 °F (at 12:50 PM)
Minimum temperature yesterday: 52 °F (at 3:20 AM)
Average temperature yesterday: 56 °F

Past Weeks' High & Low Weather Summary

 TemperatureHumidityPressure
High66 °F (Oct 19, 1:50 PM)100% (Oct 10, 6:50 AM)30.21 "Hg (Oct 10, 6:50 AM)
Low39 °F (Oct 12, 6:20 AM)51% (Oct 7, 1:20 PM)29.27 "Hg (Oct 8, 1:50 PM)
Average55 °F85%29.70 "Hg
* Reported Oct 6 9:20 PM — Oct 21 9:20 PM, Exeter, Weather by CustomWeather, © 2014

Note: Actual official high and low records may vary slightly from our data, if they occured in-between our weather recording intervals... More about our weather records

Advertising

Exeter weather history for previous 24 hours

 ConditionsComfort  
Time TempWeatherWind HumidityBarometerVisibility
9:20 PM
Oct 21
46 °FPassing clouds.6 mph76%30.21 "HgN/A
8:50 PM46 °FPassing clouds.7 mph76%30.18 "HgN/A
8:20 PM48 °FPassing clouds.12 mph76%30.18 "HgN/A
7:50 PM48 °FPassing clouds.8 mph71%30.15 "HgN/A
7:20 PM48 °FPassing clouds.14 mph66%30.15 "HgN/A
6:50 PM48 °FPassing clouds.14 mph82%30.12 "HgN/A
6:20 PM48 °FSprinkles. Passing clouds.17 mph82%30.09 "HgN/A
5:50 PM50 °FSprinkles. Passing clouds.15 mph71%30.09 "HgN/A
5:20 PM50 °FScattered showers. Scattered clouds.18 mph71%30.07 "HgN/A
4:50 PM54 °FScattered showers. Scattered clouds.22 mph58%30.04 "HgN/A
4:20 PM54 °FScattered showers. Scattered clouds.28 mph63%30.01 "HgN/A
3:50 PM55 °FScattered clouds.21 mph63%30.01 "HgN/A
3:20 PM54 °FScattered showers. Scattered clouds.28 mph67%29.98 "HgN/A
2:50 PM54 °FScattered showers. Scattered clouds.21 mph67%29.98 "HgN/A
2:20 PM54 °FScattered showers. Scattered clouds.26 mph63%29.95 "HgN/A
1:50 PM54 °FSprinkles. Scattered clouds.22 mph67%29.95 "HgN/A
1:20 PM54 °FScattered clouds.24 mph67%29.92 "HgN/A
12:20 PM52 °FScattered showers. Scattered clouds.20 mph77%29.89 "HgN/A
11:50 AM48 °FScattered showers. Scattered clouds.22 mph87%29.89 "HgN/A
11:20 AM52 °FRain showers. Scattered clouds.26 mph72%29.86 "HgN/A
10:50 AM54 °FScattered showers. Passing clouds.23 mph67%29.83 "HgN/A
10:20 AM54 °FScattered showers. Passing clouds.24 mph67%29.80 "HgN/A
9:50 AM54 °FScattered showers. Passing clouds.22 mph67%29.80 "HgN/A
9:20 AM54 °FPassing clouds.23 mph67%29.77 "HgN/A
8:50 AM54 °FScattered showers. Passing clouds.23 mph72%29.74 "HgN/A
8:20 AM54 °FPassing clouds.28 mph82%29.71 "HgN/A
7:50 AM54 °FScattered showers. Passing clouds.22 mph88%29.68 "HgN/A
7:20 AM57 °FRain showers. Passing clouds.20 mph82%29.65 "HgN/A
6:50 AM57 °FPassing clouds.22 mph82%29.65 "HgN/A
6:20 AM57 °FPassing clouds.22 mph82%29.65 "HgN/A
1:50 AM57 °FPassing clouds.12 mph77%29.83 "HgN/A
1:20 AM55 °FPassing clouds.12 mph82%29.83 "HgN/A
12:50 AM55 °FPassing clouds.10 mph82%29.83 "HgN/A
12:20 AM55 °FPassing clouds.13 mph88%29.89 "HgN/A
11:50 PM
Oct 20
54 °FPassing clouds.8 mph94%29.89 "Hg6 mi
11:20 PM54 °FPassing clouds.6 mph94%29.89 "Hg6 mi
10:50 PM55 °FPassing clouds.8 mph88%29.92 "Hg4 mi
10:20 PM55 °FPassing clouds.10 mph82%29.92 "HgN/A
Weather by CustomWeather, © 2014

See weather overviewHow to use our weather pages